Time,TemperatureF,DewpointF,PressureIn,WindDirection,WindDirectionDegrees,WindSpeedMPH,WindSpeedGustMPH,Humidity,HourlyPrecipIn,Conditions,Clouds,dailyrainin,SoftwareType,DateUTC
2013-09-16 00:04:00,54.9,47.0,29.86,NE,44,0.0,-999.0,74,-99.99,,,0.00,weatherlink.com 1.10,2013-09-16 07:04:00,
2013-09-16 00:19:00,54.1,47.0,29.86,NE,44,0.0,-999.0,76,-99.99,,,0.00,weatherlink.com 1.10,2013-09-16 07:19:00,
2013-09-16 00:34:00,53.9,47.0,29.87,NE,44,0.0,-999.0,77,-99.99,,,0.00,weatherlink.com 1.10,2013-09-16 07:34:00,
2013-09-16 00:49:00,53.7,47.0,29.87,NE,47,0.0,-999.0,77,-99.99,,,0.00,weatherlink.com 1.10,2013-09-16 07:49:00,
2013-09-16 01:04:00,54.0,47.0,29.87,NE,47,0.0,-999.0,77,-99.99,,,0.00,weatherlink.com 1.10,2013-09-16 08:04:00,
2013-09-16 01:19:00,53.9,47.0,29.87,NE,47,0.0,-999.0,77,-99.99,,,0.00,weatherlink.com 1.10,2013-09-16 08:19:00,
2013-09-16 01:34:00,53.7,47.0,29.87,NE,47,0.0,-999.0,78,-99.99,,,0.00,weatherlink.com 1.10,2013-09-16 08:34:00,
2013-09-16 01:49:00,54.0,47.0,29.87,NE,47,2.0,-999.0,78,-99.99,,,0.00,weatherlink.com 1.10,2013-09-16 08:49:00,
2013-09-16 02:04:00,54.2,47.0,29.87,NE,47,0.0,-999.0,77,-99.99,,,0.00,weatherlink.com 1.10,2013-09-16 09:04:00,
2013-09-16 02:19:00,54.5,47.0,29.87,NE,47,0.0,-999.0,76,-99.99,,,0.00,weatherlink.com 1.10,2013-09-16 09:19:00,
2013-09-16 02:34:00,54.7,47.0,29.87,NE,47,0.0,-999.0,75,-99.99,,,0.00,weatherlink.com 1.10,2013-09-16 09:34:00,
2013-09-16 02:49:00,54.4,47.0,29.86,NE,38,0.0,-999.0,76,-99.99,,,0.00,weatherlink.com 1.10,2013-09-16 09:49:00,
2013-09-16 03:04:00,54.1,47.0,29.86,NE,38,0.0,-999.0,77,-99.99,,,0.00,weatherlink.com 1.10,2013-09-16 10:04:00,
2013-09-16 03:19:00,53.9,47.0,29.86,NE,38,3.0,-999.0,77,-99.99,,,0.00,weatherlink.com 1.10,2013-09-16 10:19:00,
2013-09-16 03:34:00,53.9,47.0,29.86,NE,38,0.0,-999.0,78,-99.99,,,0.00,weatherlink.com 1.10,2013-09-16 10:34:00,
2013-09-16 03:49:00,53.8,47.0,29.86,NE,38,0.0,-999.0,79,-99.99,,,0.00,weatherlink.com 1.10,2013-09-16 10:49:00,
2013-09-16 04:04:00,53.4,47.0,29.85,NE,38,1.0,-999.0,80,-99.99,,,0.00,weatherlink.com 1.10,2013-09-16 11:04:00,
2013-09-16 04:19:00,53.1,47.0,29.86,NE,38,0.0,-999.0,80,-99.99,,,0.00,weatherlink.com 1.10,2013-09-16 11:19:00,
2013-09-16 04:34:00,53.0,47.0,29.86,NE,38,0.0,-999.0,80,-99.99,,,0.00,weatherlink.com 1.10,2013-09-16 11:34:00,
2013-09-16 04:49:00,52.6,47.0,29.86,NE,38,1.0,-999.0,81,-99.99,,,0.00,weatherlink.com 1.10,2013-09-16 11:49:00,
2013-09-16 05:04:00,52.2,47.0,29.86,NE,38,1.0,-999.0,82,-99.99,,,0.00,weatherlink.com 1.10,2013-09-16 12:04:00,
2013-09-16 05:19:00,51.5,47.0,29.87,NE,38,0.0,-999.0,83,-99.99,,,0.00,weatherlink.com 1.10,2013-09-16 12:19:00,
2013-09-16 05:34:00,51.2,47.0,29.87,NE,38,0.0,-999.0,84,-99.99,,,0.00,weatherlink.com 1.10,2013-09-16 12:34:00,
2013-09-16 05:49:00,50.7,46.0,29.88,NE,38,0.0,-999.0,85,-99.99,,,0.00,weatherlink.com 1.10,2013-09-16 12:49:00,
2013-09-16 06:04:00,50.4,46.0,29.88,NE,38,0.0,-999.0,86,-99.99,,,0.00,weatherlink.com 1.10,2013-09-16 13:04:00,
2013-09-16 06:19:00,50.3,46.0,29.88,NE,38,0.0,-999.0,86,-99.99,,,0.00,weatherlink.com 1.10,2013-09-16 13:19:00,
2013-09-16 06:34:00,50.1,46.0,29.89,NE,38,0.0,-999.0,87,-99.99,,,0.00,weatherlink.com 1.10,2013-09-16 13:34:00,
2013-09-16 06:49:00,50.1,47.0,29.89,NE,38,0.0,-999.0,88,-99.99,,,0.00,weatherlink.com 1.10,2013-09-16 13:49:00,
2013-09-16 07:04:00,50.9,48.0,29.89,NE,38,0.0,-999.0,88,-99.99,,,0.00,weatherlink.com 1.10,2013-09-16 14:04:00,
2013-09-16 07:19:00,52.7,49.0,29.89,NE,38,0.0,-999.0,87,-99.99,,,0.00,weatherlink.com 1.10,2013-09-16 14:19:00,
2013-09-16 07:34:00,55.0,51.0,29.89,NE,38,0.0,-999.0,85,-99.99,,,0.00,weatherlink.com 1.10,2013-09-16 14:34:00,
2013-09-16 07:49:00,57.8,52.0,29.89,NE,38,0.0,-999.0,82,-99.99,,,0.00,weatherlink.com 1.10,2013-09-16 14:49:00,
2013-09-16 08:04:00,61.7,54.0,29.89,NE,38,0.0,-999.0,76,-99.99,,,0.00,weatherlink.com 1.10,2013-09-16 15:04:00,
2013-09-16 08:20:00,64.4,55.0,29.89,NE,38,0.0,-999.0,71,-99.99,,,0.00,weatherlink.com 1.10,2013-09-16 15:20:00,
2013-09-16 08:35:00,67.3,55.0,29.88,NE,38,0.0,-999.0,66,-99.99,,,0.00,weatherlink.com 1.10,2013-09-16 15:35:00,
2013-09-16 08:50:00,69.0,54.0,29.88,South,182,0.0,-999.0,60,-99.99,,,0.00,weatherlink.com 1.10,2013-09-16 15:50:00,
2013-09-16 09:05:00,70.6,54.0,29.88,South,173,0.0,-999.0,55,-99.99,,,0.00,weatherlink.com 1.10,2013-09-16 16:05:00,
2013-09-16 09:20:00,71.4,53.0,29.88,South,173,0.0,-999.0,52,-99.99,,,0.00,weatherlink.com 1.10,2013-09-16 16:20:00,
2013-09-16 09:35:00,72.2,54.0,29.88,South,173,1.0,-999.0,54,-99.99,,,0.00,weatherlink.com 1.10,2013-09-16 16:35:00,
2013-09-16 09:50:00,71.7,54.0,29.88,WSW,248,0.0,-999.0,54,-99.99,,,0.00,weatherlink.com 1.10,2013-09-16 16:50:00,
2013-09-16 10:05:00,71.3,54.0,29.88,SSW,202,0.0,-999.0,55,-99.99,,,0.00,weatherlink.com 1.10,2013-09-16 17:05:00,
2013-09-16 10:20:00,71.4,54.0,29.88,WNW,282,0.0,-999.0,55,-99.99,,,0.00,weatherlink.com 1.10,2013-09-16 17:20:00,
2013-09-16 10:36:00,71.0,55.0,29.88,WNW,282,0.0,-999.0,57,-99.99,,,0.00,weatherlink.com 1.10,2013-09-16 17:36:00,
2013-09-16 10:50:00,70.5,56.0,29.88,WNW,282,0.0,-999.0,61,-99.99,,,0.00,weatherlink.com 1.10,2013-09-16 17:50:00,
2013-09-16 11:05:00,70.4,57.0,29.88,WNW,282,0.0,-999.0,62,-99.99,,,0.00,weatherlink.com 1.10,2013-09-16 18:05:00,
2013-09-16 11:20:00,70.5,55.0,29.87,WNW,282,1.0,-999.0,58,-99.99,,,0.00,weatherlink.com 1.10,2013-09-16 18:20:00,
2013-09-16 11:35:00,70.7,56.0,29.87,WNW,282,0.0,-999.0,60,-99.99,,,0.00,weatherlink.com 1.10,2013-09-16 18:35:00,
2013-09-16 11:50:00,70.4,55.0,29.87,WNW,282,0.0,-999.0,59,-99.99,,,0.00,weatherlink.com 1.10,2013-09-16 18:50:00,
2013-09-16 12:05:00,70.5,55.0,29.86,South,175,0.0,-999.0,58,-99.99,,,0.00,weatherlink.com 1.10,2013-09-16 19:05:00,
2013-09-16 12:20:00,71.0,55.0,29.85,South,175,0.0,-999.0,57,-99.99,,,0.00,weatherlink.com 1.10,2013-09-16 19:20:00,
2013-09-16 12:35:00,71.3,56.0,29.85,South,175,0.0,-999.0,59,-99.99,,,0.00,weatherlink.com 1.10,2013-09-16 19:35:00,
2013-09-16 12:50:00,71.2,56.0,29.84,South,175,0.0,-999.0,58,-99.99,,,0.00,weatherlink.com 1.10,2013-09-16 19:50:00,
2013-09-16 13:05:00,71.8,55.0,29.84,South,190,0.0,-999.0,55,-99.99,,,0.00,weatherlink.com 1.10,2013-09-16 20:05:00,
2013-09-16 13:20:00,69.9,58.0,29.84,NW,309,0.0,-999.0,67,-99.99,,,0.00,weatherlink.com 1.10,2013-09-16 20:20:00,
2013-09-16 13:35:00,67.4,57.0,29.83,East,96,4.0,-999.0,70,-99.99,,,0.00,weatherlink.com 1.10,2013-09-16 20:35:00,
2013-09-16 13:50:00,65.1,57.0,29.83,ESE,103,0.0,-999.0,75,-99.99,,,0.00,weatherlink.com 1.10,2013-09-16 20:50:00,
2013-09-16 14:05:00,63.1,56.0,29.83,North,355,2.0,-999.0,78,-99.99,,,0.01,weatherlink.com 1.10,2013-09-16 21:05:00,
2013-09-16 14:20:00,64.3,57.0,29.84,NE,42,2.0,-999.0,76,-99.99,,,0.01,weatherlink.com 1.10,2013-09-16 21:20:00,
2013-09-16 14:35:00,68.5,55.0,29.83,NE,55,0.0,-999.0,63,-99.99,,,0.01,weatherlink.com 1.10,2013-09-16 21:35:00,
2013-09-16 14:50:00,70.5,55.0,29.82,SSE,155,1.0,-999.0,58,-99.99,,,0.01,weatherlink.com 1.10,2013-09-16 21:50:00,
2013-09-16 15:05:00,72.0,55.0,29.80,SE,145,1.0,-999.0,56,-99.99,,,0.01,weatherlink.com 1.10,2013-09-16 22:05:00,
2013-09-16 15:20:00,73.1,56.0,29.80,NNE,28,0.0,-999.0,55,-99.99,,,0.01,weatherlink.com 1.10,2013-09-16 22:20:00,
2013-09-16 15:35:00,74.2,54.0,29.79,SE,130,1.0,-999.0,50,-99.99,,,0.01,weatherlink.com 1.10,2013-09-16 22:35:00,
2013-09-16 15:50:00,74.8,54.0,29.79,NNE,32,0.0,-999.0,49,-99.99,,,0.01,weatherlink.com 1.10,2013-09-16 22:50:00,
2013-09-16 16:05:00,74.0,55.0,29.79,SE,136,0.0,-999.0,52,-99.99,,,0.01,weatherlink.com 1.10,2013-09-16 23:05:00,
2013-09-16 16:20:00,74.1,53.0,29.79,NE,40,0.0,-999.0,48,-99.99,,,0.01,weatherlink.com 1.10,2013-09-16 23:20:00,
2013-09-16 16:35:00,74.0,52.0,29.79,East,82,0.0,-999.0,47,-99.99,,,0.01,weatherlink.com 1.10,2013-09-16 23:35:00,
2013-09-16 16:50:00,73.8,54.0,29.79,North,350,0.0,-999.0,50,-99.99,,,0.01,weatherlink.com 1.10,2013-09-16 23:50:00,
2013-09-16 17:05:00,73.1,55.0,29.79,North,350,0.0,-999.0,53,-99.99,,,0.01,weatherlink.com 1.10,2013-09-17 00:05:00,
2013-09-16 17:20:00,71.7,56.0,29.79,ENE,65,0.0,-999.0,58,-99.99,,,0.01,weatherlink.com 1.10,2013-09-17 00:20:00,
2013-09-16 17:35:00,71.0,56.0,29.78,ENE,65,0.0,-999.0,60,-99.99,,,0.01,weatherlink.com 1.10,2013-09-17 00:35:00,
2013-09-16 17:50:00,70.1,58.0,29.78,ENE,65,0.0,-999.0,66,-99.99,,,0.01,weatherlink.com 1.10,2013-09-17 00:50:00,
2013-09-16 18:05:00,69.2,59.0,29.77,ENE,65,0.0,-999.0,69,-99.99,,,0.01,weatherlink.com 1.10,2013-09-17 01:05:00,
2013-09-16 18:20:00,68.6,58.0,29.78,ENE,65,0.0,-999.0,70,-99.99,,,0.01,weatherlink.com 1.10,2013-09-17 01:20:00,
2013-09-16 18:35:00,67.6,58.0,29.77,ENE,65,0.0,-999.0,72,-99.99,,,0.01,weatherlink.com 1.10,2013-09-17 01:35:00,
2013-09-16 18:50:00,66.1,58.0,29.77,ENE,65,0.0,-999.0,74,-99.99,,,0.01,weatherlink.com 1.10,2013-09-17 01:50:00,
2013-09-16 19:05:00,65.1,57.0,29.78,ENE,65,0.0,-999.0,75,-99.99,,,0.01,weatherlink.com 1.10,2013-09-17 02:05:00,
2013-09-16 19:20:00,64.2,57.0,29.79,ENE,65,0.0,-999.0,76,-99.99,,,0.01,weatherlink.com 1.10,2013-09-17 02:20:00,
2013-09-16 19:35:00,63.6,56.0,29.79,ENE,58,0.0,-999.0,76,-99.99,,,0.01,weatherlink.com 1.10,2013-09-17 02:35:00,
2013-09-16 19:50:00,63.0,55.0,29.79,NNE,26,0.0,-999.0,76,-99.99,,,0.01,weatherlink.com 1.10,2013-09-17 02:50:00,
2013-09-16 20:05:00,62.3,54.0,29.80,NNE,26,0.0,-999.0,75,-99.99,,,0.01,weatherlink.com 1.10,2013-09-17 03:05:00,
2013-09-16 20:20:00,61.8,54.0,29.81,NNE,26,0.0,-999.0,75,-99.99,,,0.01,weatherlink.com 1.10,2013-09-17 03:20:00,
2013-09-16 20:35:00,61.5,54.0,29.81,NNE,26,0.0,-999.0,75,-99.99,,,0.01,weatherlink.com 1.10,2013-09-17 03:35:00,
2013-09-16 20:50:00,61.1,54.0,29.81,NNE,26,0.0,-999.0,76,-99.99,,,0.01,weatherlink.com 1.10,2013-09-17 03:50:00,
2013-09-16 21:06:00,60.6,53.0,29.81,NNE,26,0.0,-999.0,77,-99.99,,,0.01,weatherlink.com 1.10,2013-09-17 04:06:00,
2013-09-16 21:21:00,60.3,53.0,29.81,NNE,26,0.0,-999.0,78,-99.99,,,0.01,weatherlink.com 1.10,2013-09-17 04:21:00,
2013-09-16 21:36:00,60.2,54.0,29.81,NNE,26,0.0,-999.0,79,-99.99,,,0.01,weatherlink.com 1.10,2013-09-17 04:36:00,
2013-09-16 21:51:00,60.2,54.0,29.82,NNE,26,0.0,-999.0,79,-99.99,,,0.01,weatherlink.com 1.10,2013-09-17 04:51:00,
2013-09-16 22:06:00,60.0,54.0,29.82,NNE,26,0.0,-999.0,80,-99.99,,,0.01,weatherlink.com 1.10,2013-09-17 05:06:00,
2013-09-16 22:21:00,59.6,53.0,29.82,NNE,26,0.0,-999.0,80,-99.99,,,0.01,weatherlink.com 1.10,2013-09-17 05:21:00,
2013-09-16 22:36:00,59.1,53.0,29.82,NNE,26,0.0,-999.0,81,-99.99,,,0.01,weatherlink.com 1.10,2013-09-17 05:36:00,
2013-09-16 22:51:00,58.4,53.0,29.82,NNE,26,0.0,-999.0,82,-99.99,,,0.01,weatherlink.com 1.10,2013-09-17 05:51:00,
2013-09-16 23:06:00,57.6,53.0,29.82,NNE,26,0.0,-999.0,84,-99.99,,,0.01,weatherlink.com 1.10,2013-09-17 06:06:00,
2013-09-16 23:21:00,56.8,52.0,29.82,NNE,26,0.0,-999.0,85,-99.99,,,0.01,weatherlink.com 1.10,2013-09-17 06:21:00,
2013-09-16 23:36:00,56.2,52.0,29.82,NNE,26,0.0,-999.0,86,-99.99,,,0.01,weatherlink.com 1.10,2013-09-17 06:36:00,
2013-09-16 23:51:00,55.5,51.0,29.82,NNE,26,0.0,-999.0,86,-99.99,,,0.01,weatherlink.com 1.10,2013-09-17 06:51:00,